Home > Weather > San Salvador > Past weeks

Flag for El Salvador Past Weather in San Salvador, El Salvador — Yesterday and Last 2 Weeks

Now
86 °F

Sunny.


Feels Like: 91 °F
Forecast: 68 / 88 °F
Wind: 8 mph from Northwest

Location: San Salvador / Ilopango

Current Time: Jun 29, 2016 at 2:09:19 PM

Latest Report: Jun 29, 2016 at 12:50 PM


Visibility: 10 mi

Pressure: 29.95 "Hg (27.78 "Hg at 667m altitude)

Humidity: 59%

Dew Point: 70 °F

Location of San SalvadorLocation

Past Weather in San Salvador — Graph

°F

San Salvador Temperature Yesterday

Maximum temperature yesterday: 82 °F (at 12:50 PM)
Minimum temperature yesterday: 70 °F (at 5:50 AM)
Average temperature yesterday: 78 °F

High & Low Weather Summary for the Past Weeks

 TemperatureHumidityPressure
High91 °F (Jun 20, 2:50 PM)100% (Jun 16, 6:50 AM)30.12 "Hg (Jun 16, 6:50 AM)
Low66 °F (Jun 26, 5:50 AM)55% (Jun 21, 3:50 PM)29.89 "Hg (Jun 27, 3:50 PM)
Average78 °F81%30.01 "Hg
* Reported Jun 14 11:50 AM — Jun 29 11:50 AM, San Salvador, Weather by CustomWeather, © 2016

Note: Actual official high and low records may vary slightly from our data, if they occured in-between our weather recording intervals... More about our weather records

Advertising

San Salvador Weather History for the Previous 24 Hours

Scroll right to see more
 ConditionsComfort  
Time TempWeatherWind HumidityBarometerVisibility
11:50 AM
Wed, Jun 29
82 °FSunny.9 mph66%29.98 "Hg10 mi
10:50 AM84 °FSunny.10 mph62%29.95 "Hg10 mi
9:50 AM82 °FSunny.9 mph66%29.98 "Hg10 mi
8:50 AM79 °FSunny.10 mph74%29.98 "Hg10 mi
7:50 AM75 °FSunny.6 mph78%29.98 "Hg10 mi
6:50 AM72 °FSunny.3 mph88%29.98 "Hg10 mi
5:50 AM72 °FSunny.3 mph88%29.95 "Hg10 mi
11:50 PM
Tue, Jun 28
75 °FClear.3 mph89%29.98 "Hg10 mi
10:50 PM75 °FPassing clouds.No wind89%29.98 "HgN/A
9:50 PM75 °FPassing clouds.2 mph89%29.98 "HgN/A
8:50 PM77 °FClear.3 mph83%29.98 "Hg10 mi
7:50 PM77 °FPassing clouds.No wind89%29.95 "HgN/A
6:50 PM79 °FPassing clouds.No wind84%29.95 "HgN/A
5:50 PM81 °FPassing clouds.No wind79%29.92 "HgN/A
4:50 PM81 °FPassing clouds.No wind79%29.92 "HgN/A
3:50 PM82 °FPassing clouds.3 mph70%29.92 "HgN/A
2:50 PM82 °FSunny.5 mph70%29.95 "Hg10 mi
Weather by CustomWeather, © 2016

See weather overviewHow to use our weather pages